Temperature
13 13 14 14 17 18 19 20 21 20 21 20 20 21 22 23 23 22 18 17 17 17 17 17 17 16 16 16 16 16 16 16 16 16 17 17 17 17 16 16 16 16 16 16 16 16 16 16 16
13 13 14 15 18 19 20 20 20 20 20 18 19 19 21 21 19 17 17 17 17 16 16 16 16 16 16 16 16 16 16 16 16 16 16 16 16 16 16 16 16 16 16 16 16 16 16 16 16
12 13 14 17 17 19 20 20 20 20 18 18 19 19 20 20 17 16 16 17 16 16 16 16 16 16 16 16 16 16 16 16 16 16 16 16 16 16 16 16 16 16 16 16 16 16 15 15 15
12 13 14 16 17 19 19 20 19 19 18 17 18 19 18 16 16 16 16 16 15 15 15 16 16 16 16 16 16 16 16 16 16 16 16 16 16 16 16 16 16 16 16 16 16 15 15 15 15
12 14 16 16 17 18 18 18 18 19 19 18 18 19 18 15 15 16 16 16 15 15 15 15 15 15 15 15 16 16 16 16 16 15 16 16 16 16 16 16 16 16 16 15 15 15 15 15 15
12 14 16 17 17 18 18 17 17 18 18 17 17 18 17 15 15 15 15 15 15 15 15 15 15 15 15 15 15 15 15 15 15 15 15 15 15 15 15 15 15 15 15 15 15 15 15 15 15
13 14 16 17 17 17 17 16 17 18 18 17 16 18 17 15 15 14 14 14 14 15 15 15 15 15 15 15 15 15 15 15 15 15 15 15 15 15 15 15 15 15 15 15 15 15 15 15 15
11 14 15 16 16 16 17 16 15 16 17 15 15 17 17 14 14 14 14 14 14 14 14 14 14 14 14 14 15 15 15 15 15 15 15 15 15 15 15 15 15 15 15 15 15 15 15 14 14
11 13 14 15 16 16 15 15 14 14 15 14 14 15 14 13 13 13 14 14 14 14 14 14 14 14 14 14 14 14 15 15 15 15 15 15 15 15 15 15 15 15 15 15 15 14 14 14 14
11 13 14 15 15 15 14 14 14 14 15 14 14 13 13 13 13 13 13 13 13 13 14 14 14 14 14 14 14 14 14 14 14 14 14 14 14 14 14 15 15 15 14 14 14 14 14 14 14
11 12 13 13 13 13 13 13 13 14 15 15 14 13 13 13 13 13 13 13 13 13 13 13 13 13 14 14 14 14 14 14 14 14 14 14 14 14 14 14 14 14 14 14 14 14 14 14 14
10 11 11 11 11 11 12 12 12 13 14 13 13 12 12 12 12 13 13 12 12 13 13 13 13 13 13 13 13 13 14 13 14 14 14 14 14 14 14 14 14 14 14 14 14 14 14 14 13
10 10 10 10 10 10 11 11 12 12 12 12 12 12 12 12 12 12 12 12 12 12 12 12 13 13 13 13 13 13 13 13 13 13 13 13 13 14 14 14 14 14 14 14 14 14 13 13 13
9 9 10 10 10 10 11 11 11 12 11 11 11 11 11 12 12 12 12 12 12 12 12 12 12 12 13 13 13 13 13 13 13 13 13 13 13 13 13 13 13 13 13 13 13 13 13 13 13
8 9 10 10 10 10 10 11 12 11 11 11 11 11 11 11 11 11 11 11 12 12 12 12 12 12 12 12 12 12 13 13 13 13 13 13 13 13 13 13 13 13 13 13 13 13 13 12 12
9 9 9 10 10 10 10 11 12 11 11 11 11 11 11 11 10 11 11 11 11 11 11 11 11 12 12 12 12 12 12 12 12 12 12 12 12 12 12 12 13 13 13 13 13 12 12 12 12
8 9 9 10 10 10 10 10 12 11 11 11 11 11 10 10 10 10 10 10 11 11 11 11 11 11 11 11 11 11 12 12 12 12 12 12 12 12 12 12 12 12 12 12 12 12 12 12 12
8 8 9 9 10 9 10 10 11 10 10 10 10 10 10 9 9 10 10 10 10 10 10 11 11 11 11 11 11 11 11 11 11 11 12 12 12 12 12 12 12 12 12 12 12 12 11 11 11
8 8 8 9 9 9 9 10 10 10 10 10 10 10 9 9 9 9 9 9 9 10 10 10 10 10 10 10 10 11 11 11 11 11 11 11 11 11 11 11 11 11 11 11 11 11 11 11 11
7 7 8 8 9 8 9 9 10 10 10 9 9 9 8 8 8 8 9 9 9 9 10 10 10 10 10 10 10 10 10 10 11 11 11 11 11 11 11 11 11 11 11 11 11 11 11 10 10
7 7 7 7 8 8 8 9 10 9 9 8 8 8 8 8 7 8 8 8 9 9 9 9 9 9 9 10 10 10 10 10 10 10 10 11 11 10 10 10 10 10 10 10 10 10 10 10 10
6 7 7 7 7 8 8 8 10 9 9 9 8 8 8 7 7 7 7 8 8 9 9 9 9 9 9 9 9 10 10 10 10 10 10 10 10 10 10 10 10 10 10 10 10 10 10 9 9
6 6 6 6 6 7 8 7 10 9 9 9 8 7 7 7 7 6 7 8 8 8 8 8 9 9 8 9 9 9 9 9 9 9 10 10 10 10 10 10 10 9 10 10 10 10 9 9 9
5 6 6 6 6 6 7 8 9 9 9 9 9 8 7 7 6 6 7 7 7 7 8 8 8 8 8 8 8 8 9 9 9 9 9 9 9 9 9 9 9 9 9 9 9 9 9 9 9
5 6 6 6 7 7 7 7 8 9 8 8 8 8 7 7 6 6 6 7 7 7 7 7 7 8 8 8 8 8 8 9 9 9 9 9 9 9 9 9 9 9 9 9 9 9 8 8 8
5 5 6 6 7 8 7 7 9 8 7 7 7 7 6 6 6 6 6 6 6 6 7 7 7 7 7 7 8 8 8 8 8 8 8 8 9 9 9 9 9 8 8 8 8 8 8 8 8
5 5 5 5 5 6 7 8 8 7 7 6 6 6 6 5 5 5 5 6 6 6 6 6 7 7 7 7 7 7 7 8 8 8 8 8 8 8 8 8 8 8 8 8 8 8 8 7 7
5 5 4 5 6 7 8 8 8 7 6 6 6 6 5 5 4 5 5 5 5 6 6 6 6 6 7 7 7 7 7 7 7 7 7 8 8 8 8 8 8 8 8 7 7 7 7 7 7
4 4 4 5 5 6 7 8 7 5 5 5 5 4 4 4 4 4 4 4 5 5 5 5 6 6 6 6 6 6 6 7 7 7 7 7 7 7 7 7 7 7 7 7 7 7 7 7 7
4 4 4 4 4 5 6 7 5 5 4 4 4 3 3 3 3 3 4 4 4 4 5 5 5 5 5 5 5 6 6 6 6 6 6 7 7 7 7 7 7 7 7 7 7 6 6 6 6
Wind_Speed
5 3 2 3 5 7 15 12 9 8 7 6 5 6 8 9 6 1 3 5 8 11 13 15 13 13 13 13 12 13 13 13 13 13 13 13 12 12 12 12 12 11 11 11 11 11 11 11 12
3 2 3 4 8 13 14 13 12 11 6 4 5 7 7 8 3 1 2 5 8 11 13 14 14 13 13 13 13 13 13 13 13 13 13 12 12 12 11 12 12 11 11 11 11 11 11 11 12
3 2 4 5 10 16 15 9 10 9 6 5 5 6 6 5 3 1 2 7 9 10 12 13 14 13 13 14 14 13 13 13 13 13 12 12 12 11 11 11 11 11 11 11 11 11 11 11 11
3 3 4 9 17 16 13 8 6 8 7 6 6 5 4 2 1 1 3 8 9 10 11 13 13 13 13 13 14 13 13 12 13 13 12 12 12 11 11 11 12 12 11 11 11 11 11 11 11
3 4 8 12 18 15 11 9 7 8 7 7 7 6 5 2 0 1 5 8 9 9 10 13 13 13 13 13 13 13 13 12 12 12 12 11 11 11 11 11 11 11 11 11 11 11 11 11 11
4 5 10 16 18 15 12 10 10 10 9 7 7 7 5 2 1 3 5 7 9 9 10 12 12 12 13 13 13 13 12 12 12 11 11 11 11 11 11 10 10 10 11 11 10 10 10 11 11
6 7 13 17 16 15 12 10 11 11 10 8 5 6 5 4 2 3 5 6 7 8 9 10 12 12 12 12 12 12 12 12 12 11 11 11 11 10 10 10 10 10 10 10 10 10 10 10 10
4 5 12 15 16 15 10 9 8 9 9 5 5 6 6 3 2 3 4 5 6 6 7 9 10 11 11 11 11 11 11 11 12 11 10 11 11 10 10 10 10 9 9 10 10 10 10 9 9
4 7 13 15 14 11 7 8 7 6 6 6 6 5 2 2 4 5 5 4 5 5 6 6 8 9 9 10 11 11 11 10 11 10 10 10 9 9 9 9 10 9 9 9 9 9 9 9 8
5 9 13 10 9 7 6 7 7 7 9 9 8 6 4 5 6 8 8 7 7 7 6 6 7 7 8 8 9 9 8 9 9 9 9 7 7 7 8 9 10 10 9 8 7 7 8 6 6
4 8 8 8 7 6 6 7 7 9 11 11 10 8 6 7 8 9 9 9 8 7 6 6 6 7 7 6 6 6 6 7 7 8 8 7 6 7 7 7 7 8 7 6 6 5 4 4 4
5 8 7 7 5 6 8 8 9 11 11 8 8 8 8 9 10 10 10 9 7 7 6 6 6 6 6 6 6 6 6 5 5 7 8 7 5 5 6 5 6 5 5 5 4 4 4 4 5
8 8 8 8 7 7 7 9 10 12 10 7 7 8 9 10 9 8 8 8 8 7 6 6 6 6 6 5 5 5 5 6 6 6 7 7 6 5 5 5 5 5 5 5 4 4 5 4 4
5 7 8 8 8 7 8 11 10 10 7 7 8 9 10 10 9 8 8 7 7 7 6 5 6 6 6 5 5 4 5 6 6 6 7 7 6 6 5 5 4 5 5 4 4 4 4 3 4
6 7 8 8 8 7 7 11 12 10 7 8 9 9 9 9 9 8 8 7 7 7 6 5 5 6 6 6 5 4 5 6 6 6 7 7 7 6 5 4 4 4 5 5 4 5 4 4 3
5 7 7 6 6 6 7 13 9 8 9 10 9 8 8 8 8 7 6 6 6 6 6 5 4 5 6 5 5 4 5 5 5 6 6 7 7 7 5 4 4 5 5 4 4 4 4 3 3
4 7 8 8 6 6 8 13 10 8 10 10 9 8 7 7 7 6 5 4 4 6 6 5 4 5 6 5 4 5 5 5 5 6 6 7 7 7 6 5 5 5 5 4 4 4 3 3 3
6 7 9 9 6 7 11 14 11 10 10 10 10 9 8 7 6 5 4 3 3 5 5 5 4 4 5 5 4 4 4 4 4 5 6 7 7 7 6 5 5 5 4 4 4 4 3 3 3
7 9 11 10 7 8 13 14 12 10 9 9 9 8 7 6 5 4 3 3 3 4 5 5 5 4 4 4 5 4 4 4 4 4 6 7 7 7 6 5 5 5 4 5 5 4 4 3 3
8 9 10 9 7 7 11 13 10 8 8 7 7 7 7 5 4 3 3 3 3 4 4 4 5 5 5 4 5 4 4 3 3 3 5 6 7 7 6 6 5 5 4 5 5 5 3 3 2
7 9 9 8 9 7 8 10 9 6 6 6 6 6 6 5 4 4 3 3 4 3 3 4 5 5 5 4 3 4 3 2 3 4 4 5 7 7 6 6 5 5 5 5 5 5 5 4 3
7 6 7 7 6 4 5 6 7 7 7 7 7 6 6 5 4 3 3 3 3 3 3 4 5 5 4 5 5 7 5 5 4 4 4 5 7 7 7 6 6 5 5 5 5 5 4 5 4
6 6 7 7 6 6 6 6 6 5 8 8 7 6 6 5 4 3 3 3 3 2 3 3 4 4 4 4 5 6 6 4 4 4 5 5 5 6 7 7 6 6 5 6 6 5 5 4 4
5 5 4 4 4 5 6 6 6 5 8 8 7 6 6 5 4 2 2 1 1 1 2 2 3 3 3 4 5 6 7 6 5 6 6 5 4 4 6 6 6 6 5 6 6 6 6 5 4
3 2 2 2 3 4 3 6 6 3 5 6 6 5 5 4 4 2 2 2 2 2 2 2 3 3 3 4 5 6 6 7 7 7 6 6 4 4 6 6 6 5 5 6 6 6 6 5 5
3 3 2 3 3 4 3 6 3 2 3 3 4 3 3 2 3 3 3 3 2 2 2 3 3 3 3 4 5 5 5 5 5 6 6 6 5 4 5 6 6 6 6 6 6 5 5 5 5
2 2 2 2 2 3 4 4 4 2 4 4 3 2 2 2 2 2 2 2 2 2 3 3 3 3 3 4 4 4 5 5 5 5 5 5 4 4 5 5 6 6 6 6 6 5 5 5 4
3 1 2 2 2 3 4 5 3 4 6 6 6 5 4 3 2 2 2 1 1 1 1 2 2 3 3 3 3 3 4 4 4 5 5 5 5 5 5 5 5 6 6 6 6 5 5 5 4
2 2 2 2 2 3 3 2 2 3 4 6 6 6 5 4 3 1 1 1 1 0 0 0 1 1 1 2 3 3 3 3 4 4 5 5 5 5 6 5 5 6 7 7 6 6 6 6 5
2 2 3 3 3 3 4 3 3 3 4 5 6 6 5 4 3 2 0 0 1 1 1 0 0 1 1 2 2 2 2 3 3 4 4 5 5 5 5 5 5 6 6 6 6 6 7 7 6
Wind_Direction
290 292 243 204 206 221 231 224 222 206 211 217 211 213 220 217 215 208 69 148 150 152 156 156 153 153 151 149 146 143 144 141 137 135 133 132 131 129 124 120 118 118 116 114 111 109 106 104 101
275 260 213 209 220 223 227 222 218 215 205 189 204 218 222 223 236 40 104 152 156 154 156 160 154 155 152 149 147 144 145 145 141 137 135 133 132 131 128 126 122 118 117 116 114 111 107 105 103
242 231 214 208 221 226 225 213 219 212 202 201 204 221 229 220 206 166 101 157 157 155 157 155 154 156 153 150 148 147 144 145 143 140 137 135 132 133 132 129 124 119 116 115 113 112 109 106 102
218 199 214 223 224 227 234 216 204 203 203 213 214 211 209 215 234 137 136 161 158 157 157 154 156 156 153 150 149 147 146 142 144 142 139 137 135 132 131 128 124 120 116 114 113 110 108 106 104
222 211 212 225 230 228 229 233 220 219 214 208 215 227 213 184 18 135 155 165 161 159 156 155 156 156 154 152 151 149 148 145 142 144 140 136 134 132 128 128 126 123 120 117 115 113 111 109 106
203 214 219 226 229 227 223 224 227 230 227 221 225 232 226 168 153 155 166 169 164 160 157 156 155 152 154 153 153 150 148 145 139 140 140 137 134 130 127 125 126 126 123 121 120 116 114 113 110
215 216 225 228 231 229 222 220 226 228 231 227 231 238 224 200 166 168 171 168 164 160 158 158 159 153 149 150 151 148 145 142 139 136 140 139 135 133 130 126 123 124 126 124 122 117 116 115 114
228 224 228 228 230 233 223 220 234 237 238 235 226 235 231 204 179 170 169 166 159 159 161 162 161 159 156 152 144 142 141 140 135 132 130 133 133 132 131 130 126 124 124 125 124 121 118 117 116
229 227 228 225 227 232 222 224 232 244 236 234 235 255 269 171 173 176 172 170 169 166 162 162 162 160 156 153 147 144 139 139 137 135 132 138 146 143 138 128 126 126 123 124 126 124 122 123 118
218 229 233 236 234 237 230 233 230 229 234 238 237 240 220 198 191 189 188 186 183 180 171 167 165 160 156 153 154 157 156 155 157 153 152 149 147 144 136 122 121 123 122 119 118 128 133 142 132
227 236 244 250 249 243 241 243 236 234 240 243 242 236 217 211 206 204 202 197 192 186 173 171 169 165 160 159 161 159 159 160 163 160 156 150 142 143 143 137 134 137 139 136 132 133 135 135 123
239 249 254 257 258 253 249 246 242 240 248 261 253 232 215 213 212 211 209 203 198 191 183 173 169 169 167 164 166 167 165 166 166 165 160 157 151 151 150 148 146 146 143 137 136 128 124 128 128
244 258 259 269 265 260 258 248 252 251 255 257 244 222 217 219 219 216 213 206 198 193 187 181 175 172 169 167 171 174 171 170 167 165 166 165 161 158 153 152 149 148 144 146 140 138 132 132 132
247 265 274 270 258 256 256 261 251 251 251 242 231 224 223 224 224 217 210 211 203 195 189 188 180 180 173 171 175 176 171 167 169 170 169 170 164 159 157 152 153 149 148 145 144 140 137 135 126
249 265 271 264 254 248 261 260 245 248 244 241 234 230 228 229 226 222 214 210 208 194 186 189 185 183 176 173 173 171 169 170 170 168 169 169 164 162 160 157 160 153 147 146 141 141 141 133 126
240 247 258 267 258 243 243 256 254 246 243 245 241 236 232 230 226 228 224 215 209 190 184 185 189 184 176 172 170 166 168 169 168 165 168 170 169 169 164 163 162 158 153 151 149 152 150 144 141
231 250 262 272 253 250 241 259 265 259 245 245 242 238 234 228 226 229 228 220 211 191 180 175 185 183 173 170 166 160 162 166 166 166 169 170 171 176 172 166 160 161 159 157 155 155 152 150 143
253 260 259 267 262 259 256 261 269 260 249 244 243 242 234 229 227 223 225 215 204 186 174 166 173 176 167 166 157 149 155 162 167 169 173 172 168 172 168 169 167 166 165 162 161 151 140 144 139
257 264 268 274 284 266 259 264 266 258 247 243 239 237 234 234 238 221 214 200 174 172 169 166 167 171 165 169 170 173 178 170 170 172 175 177 173 171 168 167 172 177 175 171 164 153 146 138 141
257 267 277 282 285 273 266 266 266 257 243 240 236 232 233 234 233 225 210 194 186 177 164 172 174 182 182 183 184 186 177 178 171 167 172 178 177 174 172 170 171 173 169 168 167 165 160 151 169
265 261 270 281 298 269 271 262 248 244 239 241 244 241 236 231 231 225 208 198 194 187 178 189 186 188 187 173 169 154 149 157 167 175 178 181 180 177 176 177 174 173 175 175 178 179 177 170 170
270 270 270 268 275 272 259 265 252 244 239 241 243 244 242 235 223 217 207 200 207 201 187 195 187 189 187 173 179 176 185 191 196 188 186 180 182 180 178 180 181 183 184 181 181 185 181 177 176
273 283 268 258 261 272 252 252 265 229 239 241 240 247 242 234 215 220 211 193 201 194 186 197 184 185 188 184 189 194 194 198 190 180 181 180 179 180 179 181 184 187 186 184 181 181 183 184 188
283 271 262 240 241 249 243 242 265 228 236 242 240 246 240 232 219 222 212 159 165 163 174 186 185 186 192 195 198 205 197 191 185 188 184 183 179 180 182 184 188 191 189 185 185 187 186 186 190
300 275 264 232 223 250 230 241 258 269 259 251 250 248 239 229 217 217 203 184 181 169 171 185 187 189 198 204 208 214 207 198 195 193 191 188 185 191 189 185 189 192 192 189 185 186 191 192 193
266 253 264 271 264 283 239 245 265 334 315 287 277 260 239 237 222 217 209 197 193 184 180 182 190 193 197 208 220 222 213 206 205 201 196 196 196 198 194 188 189 189 186 187 185 184 188 192 195
235 235 288 284 291 265 243 262 279 333 346 342 323 310 293 268 252 235 211 199 194 191 193 193 191 195 203 211 220 224 216 215 210 202 201 197 194 190 191 189 187 184 182 186 185 184 185 186 192
291 263 204 229 264 262 256 262 275 337 337 335 331 323 323 317 306 258 220 208 208 217 208 193 192 199 204 211 217 225 223 221 214 199 197 197 191 185 186 189 187 183 183 184 186 182 182 183 186
211 200 234 242 268 271 271 272 6 316 322 321 326 326 322 320 310 284 245 220 207 218 245 192 190 206 217 220 220 222 220 215 207 201 199 195 189 185 186 185 187 188 187 185 183 184 182 185 185
262 248 223 238 243 254 276 296 37 351 343 336 334 336 330 330 328 328 347 82 61 27 4 306 201 207 230 233 222 218 211 202 201 201 197 190 186 186 186 184 188 192 190 187 186 186 188 188 189
Height
1510 1511 1514 1516 1516 1511 1502 1498 1499 1501 1502 1504 1505 1505 1503 1503 1504 1509 1508 1506 1508 1510 1512 1514 1516 1518 1520 1522 1524 1525 1527 1528 1529 1530 1531 1532 1533 1533 1534 1535 1535 1536 1536 1536 1536 1537 1537 1537 1537
1509 1511 1514 1515 1508 1504 1497 1496 1499 1499 1502 1505 1506 1506 1504 1504 1506 1506 1505 1505 1507 1510 1511 1514 1516 1518 1520 1522 1524 1525 1527 1528 1529 1530 1531 1532 1533 1534 1534 1535 1535 1536 1536 1537 1537 1537 1537 1538 1538
1509 1510 1513 1508 1502 1495 1492 1495 1497 1500 1503 1504 1504 1505 1504 1504 1505 1505 1505 1505 1508 1510 1512 1513 1515 1518 1520 1521 1523 1525 1526 1528 1529 1530 1531 1532 1533 1533 1534 1535 1535 1536 1536 1537 1537 1537 1538 1538 1538
1508 1511 1511 1505 1496 1492 1492 1494 1498 1500 1502 1503 1503 1503 1504 1505 1504 1504 1504 1506 1508 1510 1512 1513 1515 1517 1519 1521 1523 1524 1526 1527 1529 1530 1531 1532 1533 1533 1534 1535 1535 1536 1537 1537 1537 1538 1538 1538 1538
1507 1507 1504 1499 1493 1492 1495 1498 1499 1499 1499 1501 1502 1500 1502 1503 1502 1503 1504 1505 1508 1510 1511 1513 1514 1516 1518 1520 1522 1524 1525 1527 1528 1529 1531 1531 1532 1533 1534 1534 1535 1536 1536 1537 1537 1538 1538 1538 1538
1506 1503 1497 1491 1489 1491 1494 1498 1499 1498 1498 1500 1501 1500 1501 1501 1501 1502 1503 1505 1507 1509 1510 1512 1514 1516 1518 1520 1521 1523 1524 1526 1527 1529 1530 1531 1532 1532 1533 1534 1535 1535 1536 1537 1537 1538 1538 1538 1539
1503 1499 1491 1487 1488 1490 1492 1496 1497 1496 1497 1499 1500 1499 1499 1500 1501 1501 1503 1505 1507 1508 1509 1511 1513 1515 1517 1519 1521 1522 1524 1525 1526 1527 1529 1530 1531 1532 1533 1534 1534 1535 1536 1536 1537 1537 1538 1538 1538
1500 1498 1491 1487 1487 1488 1492 1495 1496 1497 1496 1499 1500 1498 1498 1499 1499 1500 1502 1504 1505 1507 1508 1510 1512 1514 1516 1518 1519 1521 1522 1524 1525 1526 1528 1529 1530 1531 1532 1533 1534 1534 1535 1536 1536 1537 1537 1537 1538
1499 1497 1487 1485 1486 1487 1492 1494 1495 1497 1497 1497 1497 1498 1498 1497 1498 1500 1501 1503 1504 1506 1507 1509 1510 1512 1514 1516 1518 1519 1521 1522 1524 1525 1526 1528 1529 1530 1531 1532 1533 1533 1534 1535 1536 1536 1537 1537 1537
1497 1491 1484 1485 1487 1489 1492 1493 1494 1495 1494 1494 1495 1496 1496 1497 1497 1498 1499 1500 1502 1503 1505 1507 1508 1510 1512 1514 1516 1517 1519 1521 1522 1523 1525 1526 1527 1528 1529 1530 1531 1532 1533 1534 1535 1535 1536 1536 1536
1494 1489 1488 1489 1490 1491 1492 1492 1493 1493 1491 1492 1493 1494 1494 1495 1496 1496 1497 1499 1500 1502 1503 1505 1507 1508 1510 1512 1514 1515 1517 1519 1520 1522 1523 1524 1525 1526 1528 1529 1530 1531 1532 1533 1533 1534 1535 1535 1535
1493 1491 1491 1491 1491 1491 1491 1491 1491 1490 1490 1491 1491 1491 1492 1493 1493 1494 1495 1496 1498 1499 1501 1502 1504 1506 1508 1510 1512 1513 1515 1517 1518 1519 1521 1522 1523 1525 1526 1527 1528 1529 1530 1531 1532 1533 1533 1534 1534
1492 1490 1491 1491 1491 1491 1490 1490 1489 1488 1489 1489 1489 1489 1490 1491 1491 1492 1494 1495 1496 1497 1498 1500 1502 1504 1506 1507 1509 1511 1513 1514 1516 1517 1519 1521 1522 1523 1524 1525 1527 1528 1529 1530 1530 1531 1532 1532 1533
1491 1491 1490 1490 1489 1489 1489 1487 1487 1485 1486 1486 1486 1487 1488 1488 1489 1490 1491 1492 1493 1494 1496 1498 1500 1501 1503 1505 1507 1509 1510 1512 1514 1516 1517 1519 1520 1521 1522 1523 1525 1526 1527 1528 1529 1530 1531 1531 1531
1492 1491 1488 1488 1488 1487 1488 1484 1482 1483 1484 1484 1484 1484 1485 1486 1487 1487 1488 1489 1490 1492 1493 1495 1497 1499 1501 1503 1505 1506 1508 1510 1511 1513 1515 1516 1518 1519 1521 1522 1523 1524 1525 1527 1527 1528 1529 1530 1530
1490 1488 1485 1484 1486 1486 1489 1479 1478 1481 1481 1481 1481 1481 1482 1483 1484 1485 1485 1487 1488 1489 1491 1493 1494 1496 1498 1500 1502 1504 1505 1507 1509 1511 1513 1514 1516 1517 1519 1520 1521 1523 1524 1525 1526 1526 1527 1528 1529
1487 1485 1483 1483 1483 1483 1484 1478 1476 1478 1478 1478 1478 1479 1480 1480 1481 1482 1483 1483 1485 1487 1488 1490 1491 1493 1495 1497 1499 1501 1503 1505 1507 1508 1510 1512 1514 1515 1516 1517 1519 1520 1522 1523 1524 1525 1525 1526 1527
1486 1483 1482 1481 1480 1482 1480 1476 1475 1476 1476 1475 1476 1476 1477 1478 1478 1479 1481 1481 1483 1484 1486 1488 1489 1490 1492 1495 1497 1499 1501 1502 1504 1506 1508 1509 1511 1513 1514 1515 1516 1518 1519 1521 1522 1523 1523 1525 1525
1487 1486 1482 1480 1480 1481 1476 1473 1472 1473 1473 1473 1473 1473 1474 1475 1476 1477 1478 1479 1480 1482 1483 1484 1486 1487 1489 1491 1493 1496 1498 1500 1502 1503 1505 1507 1509 1510 1512 1513 1514 1516 1517 1518 1520 1521 1521 1522 1523
1486 1485 1481 1479 1479 1479 1474 1471 1469 1470 1470 1471 1471 1471 1472 1472 1473 1473 1475 1476 1478 1479 1479 1481 1483 1484 1486 1489 1491 1493 1495 1497 1499 1500 1502 1504 1506 1508 1509 1511 1512 1513 1515 1516 1517 1519 1519 1520 1521
1485 1483 1482 1481 1479 1476 1475 1467 1465 1467 1469 1469 1469 1469 1469 1470 1470 1471 1472 1473 1474 1476 1477 1479 1480 1481 1483 1486 1488 1490 1492 1494 1496 1497 1499 1501 1503 1505 1507 1508 1510 1510 1512 1513 1515 1516 1517 1518 1519
1484 1483 1483 1481 1479 1475 1475 1467 1460 1462 1464 1466 1466 1467 1467 1467 1468 1469 1470 1470 1471 1473 1475 1477 1478 1479 1481 1483 1484 1486 1488 1490 1492 1495 1497 1499 1501 1502 1504 1506 1507 1509 1510 1511 1512 1514 1515 1516 1516
1485 1485 1483 1481 1479 1478 1472 1470 1457 1460 1461 1462 1463 1464 1464 1465 1466 1467 1467 1468 1469 1471 1472 1474 1475 1477 1479 1480 1482 1484 1486 1488 1490 1492 1494 1495 1497 1499 1501 1503 1504 1506 1507 1508 1510 1511 1512 1513 1514
1487 1484 1481 1480 1478 1476 1469 1467 1456 1456 1458 1458 1460 1462 1463 1463 1464 1465 1466 1467 1468 1469 1470 1472 1472 1474 1476 1478 1480 1482 1484 1485 1486 1488 1490 1491 1493 1495 1498 1500 1501 1502 1504 1505 1507 1508 1509 1510 1511
1487 1483 1478 1474 1471 1465 1467 1466 1458 1457 1459 1459 1459 1460 1461 1462 1463 1464 1464 1465 1466 1467 1468 1470 1470 1471 1474 1476 1477 1479 1481 1482 1484 1485 1487 1489 1490 1492 1494 1496 1498 1499 1501 1502 1503 1505 1506 1507 1508
1487 1485 1480 1474 1465 1460 1465 1462 1457 1460 1460 1460 1460 1460 1461 1461 1462 1462 1463 1464 1465 1465 1466 1467 1468 1469 1471 1473 1475 1476 1478 1479 1481 1483 1484 1486 1487 1489 1491 1493 1494 1496 1498 1499 1500 1501 1503 1504 1505
1487 1484 1485 1481 1476 1473 1461 1459 1457 1460 1460 1460 1460 1460 1460 1461 1461 1461 1462 1463 1463 1464 1465 1465 1466 1467 1469 1470 1472 1473 1475 1476 1478 1480 1481 1483 1484 1486 1488 1489 1491 1493 1494 1496 1497 1498 1499 1501 1502
1489 1486 1486 1481 1474 1464 1458 1456 1455 1459 1460 1460 1461 1460 1460 1459 1460 1460 1460 1461 1462 1462 1463 1464 1464 1465 1466 1468 1469 1470 1472 1473 1475 1477 1478 1480 1481 1482 1484 1486 1488 1489 1491 1493 1493 1494 1496 1497 1498
1489 1488 1486 1481 1478 1469 1459 1457 1462 1464 1464 1463 1462 1460 1459 1458 1458 1458 1458 1459 1460 1461 1461 1462 1462 1463 1464 1465 1467 1468 1469 1470 1472 1473 1475 1476 1478 1479 1481 1483 1484 1486 1488 1489 1490 1491 1493 1494 1495
1488 1486 1485 1482 1480 1476 1467 1464 1466 1466 1465 1464 1462 1461 1459 1458 1458 1457 1458 1458 1459 1459 1460 1460 1460 1461 1462 1463 1464 1465 1467 1468 1469 1470 1472 1473 1475 1477 1478 1480 1482 1483 1484 1486 1487 1488 1489 1491 1492